DW3823 Weather Reports


Display with metric or nautical units.
time (UTC)temp
F
wind
direction
speed
MPH
gust
MPH
rain 1hr
in
rain 24hr
in
rain mn
in
humidity
%
barometer
mb
20260503191548 62 252 1.0 7.0 0.00 0.05 0.01 50 1020.1
20260503191048 62 272 1.0 7.0 0.00 0.05 0.01 48 1020.3
20260503190550 62 254 1.0 9.0 0.00 0.05 0.01 50 1020.5
20260503190047 62 182 2.0 6.0 0.00 0.05 0.01 51 1020.5
20260503185546 61 278 2.0 7.0 0.00 0.05 0.01 51 1020.5
20260503185050 61 270 2.0 10.0 0.00 0.05 0.01 51 1020.6
20260503184555 61 157 4.0 10.0 0.00 0.05 0.01 50 1020.6
20260503184046 61 247 3.0 7.0 0.00 0.05 0.01 53 1020.7
20260503183546 61 303 1.0 10.0 0.00 0.05 0.01 51 1020.7
20260503183045 61 335 3.0 10.0 0.00 0.05 0.01 54 1020.8
20260503182547 60 217 2.0 8.0 0.00 0.05 0.01 54 1020.9
20260503182043 59 111 3.0 7.0 0.00 0.05 0.01 49 1021.1
20260503181543 60 339 2.0 8.0 0.00 0.05 0.01 53 1021.3
20260503181043 59 277 3.0 8.0 0.00 0.05 0.01 50 1021.3
20260503180546 60 289 3.0 8.0 0.00 0.05 0.01 51 1021.2
20260503180051 59 229 1.0 9.0 0.00 0.05 0.01 52 1021.3
20260503175541 60 267 2.0 9.0 0.00 0.05 0.01 51 1021.4
20260503175040 59 240 3.0 7.0 0.00 0.05 0.01 53 1021.4
20260503174545 59 159 3.0 9.0 0.00 0.05 0.01 54 1021.5
20260503174043 59 292 4.0 9.0 0.00 0.05 0.01 54 1021.7
20260503173538 59 355 3.0 8.0 0.00 0.05 0.01 57 1021.6
20260503173047 59 201 2.0 7.0 0.00 0.05 0.01 55 1021.7
20260503172538 58 287 2.0 6.0 0.00 0.05 0.01 56 1021.7
20260503172036 58 146 3.0 9.0 0.00 0.05 0.01 56 1021.8
20260503171536 57 159 4.0 7.0 0.00 0.05 0.01 57 1021.7
20260503171037 57 271 2.0 8.0 0.00 0.05 0.01 54 1021.9
20260503170536 58 227 3.0 8.0 0.00 0.05 0.01 53 1022.0
20260503150517 52 167 3.0 7.0 0.00 0.05 0.01 73 1022.9
20260503131054 44 165 1.0 5.0 0.00 0.05 0.01 96 1022.7
20260503130555 44 136 0.0 3.0 0.00 0.05 0.01 96 1022.7
20260503110532 41 204 0.0 1.0 0.00 0.05 0.01 96 1021.1
20260503081519 40 55 0.0 0.0 0.00 0.04 0.00 96 1020.8
20260503081015 40 55 0.0 0.0 0.00 0.04 0.00 96 1020.8
20260503080516 40 55 0.0 0.0 0.00 0.04 0.00 96 1020.7
20260503072512 40 55 0.0 0.0 0.00 0.04 0.00 96 1020.3
20260503072015 39 55 0.0 0.0 0.00 0.04 0.00 96 1020.3
20260503071511 39 55 0.0 0.0 0.00 0.04 0.00 96 1020.1
20260503071009 39 55 0.0 0.0 0.00 0.04 0.00 96 1020.1
20260503070511 39 55 0.0 0.0 0.00 0.04 0.00 95 1020.1
20260503055002 40 55 0.0 0.0 0.00 0.04 0.00 95 1020.1
20260503054502 40 55 0.0 0.0 0.00 0.04 0.00 95 1020.1
20260503054003 40 55 0.0 0.0 0.00 0.04 0.00 95 1020.2
20260503053600 41 55 0.0 0.0 0.00 0.04 0.00 95 1020.1
20260503053058 41 55 0.0 0.0 0.00 0.04 0.00 95 1020.0
20260503052558 41 55 0.0 0.0 0.00 0.04 0.00 95 1019.9
20260503052057 41 55 0.0 0.0 0.00 0.04 0.00 95 1020.0
20260503051602 41 55 0.0 0.0 0.00 0.04 0.00 95 1020.0
20260503051056 41 55 0.0 0.0 0.00 0.04 0.00 95 1019.9
20260503050554 42 55 0.0 0.0 0.00 0.04 0.00 95 1019.8
20260503050054 42 55 0.0 0.0 0.00 0.04 0.00 95 1019.8
20260503045554 42 55 0.0 0.0 0.00 0.04 0.04 95 1019.7
20260503045053 42 55 0.0 0.0 0.00 0.04 0.04 94 1019.7
20260503044553 42 55 0.0 0.0 0.00 0.04 0.04 94 1019.7
20260503044055 42 55 0.0 1.0 0.00 0.04 0.04 94 1019.8
20260503043552 42 55 0.0 1.0 0.00 0.04 0.04 94 1019.7
20260503043053 42 55 0.0 0.0 0.00 0.04 0.04 94 1019.7
20260503042552 43 55 0.0 0.0 0.00 0.04 0.04 94 1019.7
20260503042051 43 55 0.0 0.0 0.00 0.04 0.04 93 1019.6
20260503041551 43 55 0.0 0.0 0.00 0.04 0.04 93 1019.6
20260503041050 43 55 0.0 0.0 0.00 0.04 0.04 93 1019.5
20260503040550 43 55 0.0 0.0 0.00 0.04 0.04 93 1019.4
20260503040057 44 55 0.0 0.0 0.00 0.04 0.04 93 1019.4
20260503035550 44 55 0.0 0.0 0.00 0.04 0.04 93 1019.4
20260503035051 44 55 0.0 0.0 0.00 0.04 0.04 93 1019.4
20260503034550 44 55 0.0 0.0 0.00 0.04 0.04 93 1019.3
20260503034048 45 55 0.0 0.0 0.00 0.04 0.04 93 1019.3
20260503033547 45 55 0.0 0.0 0.00 0.04 0.04 92 1019.3
20260503033050 45 55 0.0 0.0 0.00 0.04 0.04 92 1019.3
20260503032548 45 55 0.0 0.0 0.00 0.04 0.04 92 1019.2
20260503032049 45 55 0.0 0.0 0.00 0.04 0.04 92 1019.2
20260503031547 45 55 0.0 0.0 0.00 0.04 0.04 92 1019.2
20260503031047 45 55 0.0 0.0 0.00 0.04 0.04 92 1019.2
20260503030547 45 55 0.0 0.0 0.00 0.04 0.04 92 1019.2
20260503030052 45 55 0.0 0.0 0.00 0.04 0.04 92 1019.1
20260503025548 45 55 0.0 1.0 0.00 0.04 0.04 91 1019.2
20260503025051 45 55 0.0 1.0 0.00 0.04 0.04 91 1019.2
20260503024545 45 55 0.0 0.0 0.00 0.04 0.04 91 1019.1
20260503024044 45 55 0.0 1.0 0.00 0.04 0.04 91 1019.1
20260503023544 45 55 0.0 1.0 0.00 0.04 0.04 91 1019.0
20260503023050 45 55 0.0 1.0 0.00 0.04 0.04 91 1019.1
20260503022543 45 55 0.0 1.0 0.00 0.04 0.04 91 1019.0
20260503022043 45 55 0.0 1.0 0.00 0.04 0.04 91 1019.0
20260503021551 45 55 0.0 1.0 0.00 0.04 0.04 91 1019.0
20260503021043 45 55 0.0 0.0 0.00 0.04 0.04 90 1018.9
20260503020543 45 55 0.0 0.0 0.00 0.04 0.04 90 1018.8
20260503020049 45 55 0.0 2.0 0.00 0.04 0.04 90 1018.8
20260503015541 45 55 0.0 3.0 0.00 0.04 0.04 90 1018.7
20260503015041 45 73 0.0 3.0 0.00 0.04 0.04 90 1018.7
20260503014544 45 92 0.0 1.0 0.00 0.04 0.04 90 1018.7
20260503014041 46 83 0.0 2.0 0.00 0.04 0.04 90 1018.6
20260503013540 46 83 0.0 3.0 0.01 0.04 0.04 90 1018.6
20260503013039 46 33 0.0 2.0 0.01 0.04 0.04 90 1018.6
20260503012544 46 37 0.0 2.0 0.01 0.04 0.04 89 1018.4
20260503012038 46 58 0.0 1.0 0.01 0.04 0.04 89 1018.4
20260503011538 46 58 0.0 1.0 0.01 0.04 0.04 89 1018.3
20260503011037 46 58 0.0 1.0 0.01 0.04 0.04 89 1018.3
20260503010537 47 58 0.0 2.0 0.01 0.04 0.04 89 1018.2
20260503010036 47 58 0.0 2.0 0.03 0.04 0.04 89 1018.1
20260503005537 47 66 0.0 2.0 0.04 0.04 0.04 89 1018.1
20260503005038 47 66 0.0 2.0 0.04 0.04 0.04 88 1018.0
20260503004543 47 66 0.0 3.0 0.04 0.04 0.04 88 1017.9
20260503004135 47 40 0.0 3.0 0.04 0.04 0.04 88 1018.2
20260503003534 48 94 0.0 2.0 0.03 0.03 0.03 88 1018.0
20260503003049 48 85 0.0 2.0 0.03 0.03 0.03 88 1018.0
20260503002534 48 84 0.0 3.0 0.03 0.03 0.03 87 1018.1
20260503002034 48 88 0.0 3.0 0.03 0.03 0.03 86 1018.0
20260503001535 48 90 0.0 3.0 0.03 0.03 0.03 84 1017.9
20260503001032 48 350 0.0 4.0 0.03 0.03 0.03 83 1017.9
20260503000533 49 311 0.0 5.0 0.03 0.03 0.03 80 1017.8
20260503000031 51 46 1.0 8.0 0.01 0.01 0.01 76 1017.9
20260502235531 52 257 0.0 10.0 0.00 0.00 0.00 73 1017.7
20260502235031 52 300 2.0 7.0 0.00 0.00 0.00 68 1017.5
20260502234531 53 281 1.0 7.0 0.00 0.00 0.00 66 1017.0
20260502234030 53 44 2.0 9.0 0.00 0.00 0.00 66 1016.6
20260502233529 53 69 2.0 9.0 0.00 0.00 0.00 64 1016.5
20260502233030 54 5 2.0 7.0 0.00 0.00 0.00 63 1016.4
20260502232529 54 95 1.0 6.0 0.00 0.00 0.00 61 1016.4
20260502232029 55 136 1.0 4.0 0.00 0.00 0.00 62 1016.4
20260502231531 55 36 1.0 5.0 0.00 0.00 0.00 59 1016.3
20260502231131 55 291 1.0 5.0 0.00 0.00 0.00 59 1016.2
20260502230529 56 61 1.0 8.0 0.00 0.00 0.00 57 1016.4
20260502230029 56 300 2.0 6.0 0.00 0.00 0.00 55 1016.3
20260502225528 56 74 2.0 6.0 0.00 0.00 0.00 54 1016.3
20260502225030 56 20 1.0 4.0 0.00 0.00 0.00 55 1016.1
20260502224534 57 57 1.0 4.0 0.00 0.00 0.00 54 1016.1
20260502224028 57 16 0.0 3.0 0.00 0.00 0.00 54 1015.9
20260502223527 57 23 1.0 3.0 0.00 0.00 0.00 56 1016.0
20260502223027 57 288 1.0 3.0 0.00 0.00 0.00 55 1015.8
20260502222527 58 336 1.0 3.0 0.00 0.00 0.00 55 1015.8
20260502222026 59 313 0.0 2.0 0.00 0.00 0.00 52 1015.7
20260502221528 59 22 0.0 3.0 0.00 0.00 0.00 50 1015.6
20260502221026 61 349 1.0 7.0 0.00 0.00 0.00 48 1015.5
20260502220626 61 32 1.0 7.0 0.00 0.00 0.00 49 1015.5
20260502220030 61 311 1.0 4.0 0.00 0.00 0.00 51 1015.5
20260502215529 60 360 1.0 6.0 0.00 0.00 0.00 48 1015.5
20260502215024 61 320 2.0 6.0 0.00 0.00 0.00 48 1015.4
20260502214525 59 329 0.0 6.0 0.00 0.00 0.00 48 1015.5
20260502214028 58 87 1.0 6.0 0.00 0.00 0.00 50 1015.5
20260502213524 59 65 1.0 6.0 0.00 0.00 0.00 47 1015.5
20260502213024 59 44 1.0 5.0 0.00 0.00 0.00 48 1015.4
20260502212524 60 21 1.0 9.0 0.00 0.00 0.00 49 1015.5
20260502212024 62 5 3.0 9.0 0.00 0.00 0.00 44 1015.3
20260502211524 61 246 1.0 8.0 0.00 0.00 0.00 43 1015.4
20260502211023 61 261 2.0 8.0 0.00 0.00 0.00 45 1015.5
20260502210522 61 299 2.0 6.0 0.00 0.00 0.00 49 1015.5
20260502210023 60 275 2.0 8.0 0.00 0.00 0.00 45 1015.6
20260502205523 62 257 1.0 8.0 0.00 0.00 0.00 45 1015.6
20260502205026 62 33 3.0 6.0 0.00 0.00 0.00 45 1015.7
20260502204533 62 42 2.0 6.0 0.00 0.00 0.00 47 1015.7
20260502204021 60 49 1.0 4.0 0.00 0.00 0.00 54 1015.9
20260502203524 58 271 0.0 4.0 0.00 0.00 0.00 48 1016.0
20260502203021 58 66 1.0 3.0 0.00 0.00 0.00 48 1016.1
20260502202521 58 58 1.0 8.0 0.00 0.00 0.00 50 1016.2
20260502202021 59 14 2.0 10.0 0.00 0.00 0.00 48 1016.2
20260502201525 60 57 3.0 10.0 0.00 0.00 0.00 45 1016.3
20260502201021 61 96 3.0 8.0 0.00 0.00 0.00 49 1016.3
20260502200520 61 327 2.0 8.0 0.00 0.00 0.00 48 1016.3
20260502200037 60 67 2.0 10.0 0.00 0.00 0.00 47 1016.5
20260502195520 59 279 3.0 10.0 0.00 0.00 0.00 50 1016.4
20260502195019 58 51 3.0 9.0 0.00 0.00 0.00 47 1016.6
20260502194520 59 65 2.0 9.0 0.00 0.00 0.00 45 1016.4
20260502194019 59 333 2.0 8.0 0.00 0.00 0.00 44 1016.4
20260502193521 60 11 1.0 9.0 0.00 0.00 0.00 44 1016.4
20260502193023 61 47 3.0 9.0 0.00 0.00 0.00 42 1016.4
20260502192518 61 300 3.0 7.0 0.00 0.00 0.00 45 1016.4